Temp_Advection
nan nan nan nan nan nan nan nan nan nan nan nan nan nan nan nan nan nan nan nan nan nan nan nan nan nan nan nan nan nan nan nan nan nan nan nan nan nan nan nan nan nan
nan 0 0 0 -0 -0 -1 -0 -0 -0 -0 0 0 0 -0 0 0 0 0 0 0 0 -0 0 0 0 -0 -0 -0 0 0 -0 -0 -0 0 0 0 0 0 0 -0 nan
nan -0 -0 -0 -0 -0 -0 0 -0 -0 -0 0 0 0 0 0 -0 0 0 0 0 -0 -0 0 -0 -0 0 -0 -0 0 -0 -0 -0 -0 0 0 0 0 0 0 -0 nan
nan -0 -0 -0 -0 -0 0 0 -0 -0 0 0 0 0 0 0 -0 -0 0 0 0 -0 0 0 0 -0 -0 -0 0 -0 -0 -0 -0 -0 -0 0 -0 -0 0 0 -0 nan
nan -0 0 0 0 0 0 -0 -0 -0 -0 0 0 0 0 -0 -0 -0 0 0 0 0 0 0 0 0 -0 0 0 -0 -0 -0 0 -0 -0 0 -0 0 0 -0 -0 nan
nan 0 -0 0 0 0 -0 -0 -0 -0 0 0 0 0 0 -0 -0 -0 -0 0 0 0 0 0 -0 -0 0 0 0 -0 -0 0 -0 -1 -0 -0 -0 0 0 -0 -0 nan
nan 0 0 0 0 0 -0 -0 -0 -0 0 0 0 -0 -0 -0 -0 -0 -0 -0 0 0 0 0 -0 -0 0 0 0 -0 -0 -0 -0 -1 -0 -0 -0 0 0 -0 -0 nan
nan 0 0 0 0 0 -0 -0 -0 -0 -0 -0 -0 -0 -0 -0 -0 -0 -0 -0 0 0 0 0 -0 -0 0 0 0 -1 -1 -0 -0 -0 -0 -0 -0 -0 -0 -0 -0 nan
nan -0 -0 -0 0 -0 -0 -0 -0 -0 -0 -0 -1 -0 -0 -0 -0 -0 -0 -0 0 0 -0 -0 -0 -0 0 0 -0 -1 -0 -0 -0 -0 0 0 -0 -0 0 0 0 nan
nan -0 -0 -0 -0 -0 0 0 0 0 -0 -1 -0 0 -0 -0 -0 -0 -0 -0 -0 -0 -0 -0 -0 -0 0 -0 -0 -0 -0 -0 -0 -0 0 0 -0 -0 0 0 0 nan
nan -0 -0 -0 0 0 1 1 1 0 -1 -1 -0 0 -0 -1 -0 -0 -0 -0 -0 -0 -0 -0 -0 0 0 -0 -0 -0 -0 -0 -0 -0 -0 0 -0 0 0 0 0 nan
nan 0 0 -0 0 1 1 0 0 -0 -1 -1 -0 -0 -0 -0 -0 -0 -0 -0 -0 -0 -0 -0 0 0 0 0 0 -0 -0 -0 -0 -0 -0 0 0 0 -0 -0 -0 nan
nan 0 0 -0 -0 0 0 -0 0 -0 -0 -1 -1 -0 0 0 -0 -0 -0 -0 -0 0 -0 -0 0 0 0 0 0 -0 -0 -0 -0 -0 -0 -0 -0 -0 0 -0 -0 nan
nan 1 -0 -0 -0 -0 -0 -0 -0 -0 -0 -1 -2 -0 1 0 -0 -0 -0 -0 -0 -0 -0 -0 -0 0 -0 -0 -0 -0 -0 -0 -0 -0 -0 -0 -0 0 0 -0 -0 nan
nan 0 -1 -0 -0 -0 -0 -0 -0 -0 -1 -2 -2 -0 0 0 0 0 -0 -0 -0 -0 -0 -0 -0 -0 -0 -0 -0 -0 -0 -0 -0 -0 -0 0 -0 -0 0 -0 -0 nan
nan -1 -1 -1 -1 -0 -0 -0 -0 -0 -1 -2 -1 -0 0 0 0 0 -0 -0 -0 -0 0 -0 -0 -0 -1 -0 -0 -0 -0 -0 -0 -0 -0 0 0 -0 -0 -0 -0 nan
nan -1 -1 -1 -0 -0 -0 -0 -0 -0 -1 -1 -0 0 0 0 0 0 1 0 -1 -1 0 0 -0 -0 -0 -0 0 0 0 -0 -0 -0 0 0 -0 -0 -0 -0 -0 nan
nan -0 -0 -0 -0 -0 -0 0 0 0 -0 -0 -0 -0 0 0 0 0 1 1 -0 -1 -0 -0 -0 -0 -0 -0 0 0 0 -0 -0 -0 -0 -0 -0 -0 -0 -0 -0 nan
nan -0 0 0 -0 -0 0 -0 0 -0 -0 -0 0 0 0 0 0 0 0 0 0 -0 -1 -1 -0 -1 -1 -0 0 0 0 0 0 -0 0 -0 -0 -0 -0 -0 -0 nan
nan 0 0 0 -0 0 -0 -0 0 0 0 0 0 0 -0 -0 0 0 0 0 0 -1 -1 -0 -0 -2 -2 -0 0 0 0 0 0 0 0 -0 -0 -0 -0 -0 -0 nan
nan 0 0 0 0 0 -0 0 0 0 0 0 0 -0 -0 0 0 0 0 0 0 -0 -0 -1 -1 -2 -2 -1 0 0 0 0 0 0 0 -0 -0 -1 -1 -0 -0 nan
nan 0 0 0 0 0 -0 0 0 0 0 0 0 0 -0 -0 0 0 0 -0 -0 0 -0 -1 -1 -2 -2 -1 0 1 1 0 0 0 -0 -0 -0 -1 -1 -1 -0 nan
nan -0 -0 0 0 -0 -0 0 0 0 0 0 0 0 -0 -0 -0 -0 0 0 -0 0 -0 -0 -0 -2 -2 -1 0 1 1 0 0 0 -0 -0 -0 -0 -0 -1 -1 nan
nan -0 0 0 0 0 0 1 1 0 -0 -0 0 0 -0 -1 -0 -0 0 0 0 0 -0 -0 -0 -1 -1 -0 0 1 1 1 1 1 -0 -1 -0 -0 -0 -1 -1 nan
nan 0 1 1 1 1 1 1 0 -0 -0 -0 -0 0 -0 -0 -0 0 0 0 0 0 -0 -0 -0 -0 -1 -0 0 1 1 1 1 1 -1 -1 -0 -0 -0 -1 -1 nan
nan nan nan nan nan nan nan nan nan nan nan nan nan nan nan nan nan nan nan nan nan nan nan nan nan nan nan nan nan nan nan nan nan nan nan nan nan nan nan nan nan nan
Wind_Speed
40 40 39 38 37 36 35 34 32 30 29 27 26 25 23 22 20 19 19 17 15 14 14 13 13 13 12 11 11 11 10 10 10 10 8 7 6 6 6 6 6 6
39 39 39 38 37 37 36 35 33 31 29 28 27 27 26 24 22 20 20 19 16 15 15 15 14 14 13 13 12 12 11 10 11 11 10 8 7 7 7 7 7 7
37 38 38 38 37 37 36 35 33 31 29 28 28 27 27 25 24 22 21 20 18 17 17 16 15 15 14 14 13 13 12 12 12 12 12 10 9 8 8 7 7 8
36 36 36 36 36 36 36 35 35 32 30 29 28 28 27 26 25 24 22 21 19 19 18 17 16 15 15 14 14 14 13 13 13 13 13 11 10 10 9 9 9 9
35 35 35 35 35 35 35 35 35 33 31 30 29 28 28 27 26 25 24 22 21 20 19 19 18 17 17 16 15 15 15 14 13 14 14 14 12 11 10 10 10 10
34 34 35 35 34 34 34 34 34 32 31 30 29 29 28 28 27 26 25 24 22 21 20 20 20 19 19 18 17 17 17 16 15 14 15 15 14 12 12 12 11 11
35 34 34 34 34 34 34 34 33 32 31 30 29 29 29 28 28 27 26 25 23 22 21 21 21 21 21 20 19 19 18 18 18 17 16 16 15 14 14 13 13 12
36 35 34 34 33 34 34 34 34 32 31 30 30 29 29 28 28 27 27 26 25 24 23 22 22 21 21 21 20 21 20 20 19 19 18 17 16 15 15 15 14 13
37 36 35 34 33 33 33 33 32 31 30 30 30 29 28 28 28 28 28 27 26 26 25 24 23 22 21 21 21 22 21 21 20 20 19 17 17 16 15 15 15 14
39 37 36 35 34 34 33 32 31 30 30 30 29 28 28 28 28 28 28 28 28 28 27 26 25 24 22 22 22 22 22 22 22 22 20 18 18 18 16 16 15 15
40 39 37 36 35 35 34 32 30 29 29 29 29 28 28 28 28 28 28 29 29 29 28 28 27 25 24 23 22 22 22 22 22 23 22 21 20 19 18 18 17 17
41 40 39 37 36 35 33 32 30 29 29 29 29 29 29 29 29 28 29 29 30 30 29 29 28 27 26 25 24 23 23 23 23 23 23 22 21 20 20 20 20 20
42 41 40 38 37 36 34 32 31 30 29 29 30 30 30 30 29 29 29 30 30 29 29 30 29 28 27 26 25 25 25 25 24 24 24 24 23 22 22 22 21 21
42 41 41 40 38 37 35 33 32 30 30 30 30 30 30 29 29 30 30 31 30 30 30 30 30 29 29 28 27 27 27 27 26 26 25 25 25 24 24 23 23 22
41 41 41 40 39 38 37 36 34 33 32 32 32 31 29 29 29 29 30 31 31 30 30 30 30 30 30 29 28 28 28 29 28 28 27 27 26 26 25 25 24 24
42 42 42 41 41 39 38 37 36 35 34 34 34 32 30 30 30 29 29 29 31 31 31 31 31 31 31 31 29 29 29 29 30 29 29 29 28 27 27 26 25 25
42 42 42 42 41 40 39 37 37 36 36 35 35 33 32 32 31 31 30 29 30 31 32 32 32 32 32 31 30 29 29 30 30 30 30 31 30 29 29 28 27 27
43 42 42 42 42 40 39 37 36 36 36 36 35 34 34 34 33 33 33 31 30 31 32 32 33 33 33 32 30 29 30 30 31 31 32 32 32 31 30 29 29 28
43 42 42 42 42 40 39 37 36 37 37 37 36 35 35 35 35 34 34 34 33 32 33 33 33 33 33 31 30 29 30 31 31 32 33 33 33 32 31 31 30 30
42 42 42 42 42 40 39 38 37 37 37 37 36 36 36 36 36 35 35 35 35 35 35 34 33 34 33 31 29 29 30 31 32 33 33 34 34 34 33 32 31 31
41 42 42 42 42 40 39 38 38 38 37 37 36 37 37 36 36 35 36 36 35 35 36 36 35 35 34 32 29 29 30 31 32 33 34 35 35 35 34 33 33 32
41 42 42 42 41 41 40 39 39 38 38 37 37 37 37 36 36 35 35 35 35 35 35 36 36 36 36 33 31 30 30 31 32 34 35 36 36 36 35 35 34 34
40 41 41 41 41 41 41 40 40 39 38 38 38 37 37 37 36 35 34 34 34 35 35 35 35 36 36 35 33 32 32 33 34 35 36 37 37 37 36 36 36 35
39 39 39 40 41 41 41 40 40 40 39 38 37 37 36 36 35 34 34 34 34 35 35 34 34 35 36 35 34 33 33 33 34 36 36 37 37 37 37 37 37 36
37 37 38 39 40 40 40 40 40 38 37 36 36 35 35 34 34 34 34 34 34 35 34 34 34 34 35 35 34 33 32 33 34 35 36 37 37 38 37 37 37 37
35 35 36 37 39 39 39 39 38 36 36 35 35 35 34 34 35 35 35 35 35 34 34 34 33 33 34 35 34 33 33 32 33 35 36 37 37 37 37 37 37 37
Wind_Direction
224 226 227 229 230 232 234 236 237 236 234 234 235 237 238 239 241 240 242 243 237 235 234 230 230 230 230 231 233 235 238 239 242 246 247 244 244 244 245 245 239 236
223 225 227 228 230 231 232 234 235 235 234 233 234 238 241 240 241 241 242 241 237 234 234 232 231 232 232 234 236 235 236 240 241 245 248 244 241 242 242 243 242 241
223 224 226 227 228 230 231 232 233 233 233 234 234 237 240 241 240 239 240 239 237 234 234 232 231 232 232 236 240 238 237 240 242 245 248 245 240 240 239 237 240 242
222 223 224 225 226 228 230 231 233 233 233 234 235 235 237 238 238 237 237 236 234 232 232 231 230 232 233 234 239 241 239 241 244 245 246 245 242 241 240 237 236 239
221 221 223 223 223 226 228 229 232 233 232 232 234 235 234 233 233 234 235 234 232 232 232 232 231 233 235 235 235 239 241 242 244 246 248 247 245 245 244 243 241 241
220 221 222 223 222 223 226 228 230 231 232 232 232 233 233 232 230 230 232 233 232 232 232 233 234 234 236 237 235 236 239 240 241 245 249 249 247 248 248 246 245 243
220 220 221 222 222 223 225 227 228 229 231 231 231 232 232 231 229 228 230 231 232 232 232 233 234 234 236 238 238 237 237 239 240 242 246 249 249 248 249 250 249 248
219 220 220 220 221 223 224 225 227 228 229 229 230 230 230 230 229 228 228 229 230 231 230 231 233 234 234 236 238 239 238 238 240 242 244 248 250 250 251 254 254 253
219 220 219 219 219 221 223 224 225 226 226 226 227 227 227 228 228 228 228 228 229 231 230 231 233 233 233 234 237 239 239 239 240 242 244 246 250 252 252 254 255 255
218 219 219 219 219 221 222 222 223 224 224 224 223 224 225 226 226 227 229 229 229 230 231 231 232 233 232 233 235 238 239 239 240 242 242 243 247 251 251 250 252 253
217 218 219 219 218 220 220 221 220 221 224 224 221 221 223 224 224 225 227 229 229 230 232 233 233 233 233 233 235 236 237 239 241 242 242 243 246 250 251 250 250 251
217 217 218 218 218 218 218 219 217 217 222 224 222 219 221 223 224 224 226 229 230 231 233 234 234 234 233 233 234 236 236 237 239 241 242 244 246 249 251 252 253 254
217 217 217 217 218 218 217 217 217 215 218 222 222 220 221 223 224 225 226 228 231 232 233 235 236 235 235 234 234 235 236 236 237 240 242 245 247 250 252 254 255 256
217 216 216 217 218 218 217 217 216 214 215 220 223 222 221 222 224 226 227 228 230 232 234 235 236 237 237 236 235 235 236 237 237 239 242 246 248 250 252 253 255 257
216 216 216 216 217 218 218 218 218 217 217 221 224 223 221 221 222 225 227 229 230 231 232 234 236 237 238 238 237 236 236 237 239 240 242 245 248 250 252 253 255 256
216 216 216 216 216 217 218 218 220 221 222 224 226 225 222 222 222 223 226 229 231 231 231 233 235 238 239 240 239 238 237 237 239 241 243 244 247 250 252 254 255 256
217 217 217 216 216 217 218 218 220 222 224 226 227 226 224 224 224 225 226 227 231 233 233 234 236 239 241 241 240 239 238 238 239 241 243 245 247 249 252 253 255 257
218 217 217 217 216 217 218 218 219 222 224 226 226 226 226 226 226 227 228 227 229 233 234 235 237 239 241 242 241 239 238 238 239 240 243 246 248 250 252 253 254 255
219 217 217 217 217 217 217 218 219 221 224 225 226 227 228 228 228 230 231 230 230 232 234 235 237 239 241 241 240 239 237 237 238 240 243 246 248 250 251 252 254 255
219 219 217 217 217 216 217 217 218 220 222 225 227 229 230 230 231 232 233 233 232 233 234 235 235 238 241 241 239 238 236 235 237 240 243 246 248 250 251 251 253 254
220 219 219 218 218 217 217 217 218 220 222 224 227 229 231 232 232 234 235 236 235 235 236 236 235 237 240 240 239 237 235 234 236 239 243 245 247 249 250 251 252 253
219 219 219 219 218 217 217 218 219 220 221 223 225 228 231 233 234 235 236 238 238 238 237 237 237 238 239 239 238 235 234 234 235 238 241 244 246 248 249 250 251 253
218 218 218 218 218 218 218 218 219 220 221 222 224 227 230 233 235 235 236 238 239 240 240 240 240 241 240 239 237 235 234 234 236 238 240 242 244 246 248 250 251 252
218 218 218 218 218 218 218 219 220 221 221 222 224 226 229 233 234 235 236 238 239 241 241 241 241 242 243 241 239 237 235 235 236 238 239 241 243 245 247 249 251 252
217 217 217 218 219 219 219 220 221 221 221 222 224 226 229 231 234 235 237 238 240 241 242 242 242 244 245 244 242 240 238 237 237 238 239 240 242 244 246 248 250 252
215 215 216 218 220 221 221 222 221 221 221 222 223 225 228 231 233 235 237 239 241 242 243 243 243 243 245 245 243 242 239 237 237 239 240 241 242 244 246 247 250 251
Height
1562 1564 1567 1570 1572 1574 1577 1579 1581 1583 1585 1587 1588 1590 1591 1592 1594 1595 1596 1597 1598 1599 1600 1601 1602 1603 1604 1604 1605 1605 1606 1606 1607 1607 1607 1608 1608 1609 1609 1610 1610 1610
1558 1561 1564 1567 1569 1571 1574 1576 1578 1580 1582 1584 1586 1588 1589 1590 1592 1593 1594 1595 1597 1597 1598 1599 1600 1601 1602 1602 1603 1604 1605 1605 1605 1606 1606 1607 1607 1608 1608 1609 1609 1609
1555 1558 1560 1563 1566 1568 1571 1573 1575 1578 1580 1582 1584 1585 1587 1588 1590 1591 1592 1593 1595 1596 1596 1598 1598 1599 1600 1601 1602 1602 1603 1604 1604 1605 1605 1606 1606 1607 1607 1608 1608 1608
1552 1554 1557 1560 1563 1565 1568 1570 1572 1574 1577 1579 1581 1583 1584 1586 1587 1588 1590 1591 1593 1594 1595 1596 1597 1598 1598 1599 1600 1601 1601 1602 1603 1603 1604 1604 1605 1605 1606 1606 1607 1607
1549 1551 1554 1557 1560 1562 1564 1567 1569 1571 1574 1576 1578 1580 1581 1583 1585 1586 1588 1589 1590 1592 1593 1594 1595 1596 1597 1597 1598 1599 1600 1600 1601 1602 1602 1603 1603 1604 1605 1605 1605 1606
1546 1548 1551 1554 1556 1559 1561 1563 1566 1568 1571 1573 1575 1577 1578 1580 1582 1584 1585 1587 1588 1590 1591 1592 1593 1594 1595 1595 1596 1597 1598 1599 1599 1600 1600 1601 1602 1602 1603 1604 1604 1604
1542 1545 1548 1551 1553 1556 1558 1560 1563 1565 1568 1570 1572 1574 1575 1577 1579 1581 1583 1584 1586 1587 1588 1589 1590 1591 1592 1593 1594 1595 1596 1597 1597 1598 1598 1599 1600 1601 1601 1602 1602 1603
1539 1542 1545 1548 1550 1553 1555 1557 1560 1562 1564 1567 1569 1571 1572 1574 1576 1578 1580 1581 1583 1584 1586 1587 1588 1589 1590 1591 1592 1592 1593 1594 1595 1595 1596 1597 1598 1599 1599 1600 1600 1601
1536 1538 1541 1544 1547 1549 1552 1554 1557 1559 1561 1563 1565 1568 1569 1571 1573 1575 1577 1578 1580 1582 1583 1584 1585 1586 1588 1589 1589 1590 1591 1592 1593 1593 1594 1595 1596 1597 1597 1598 1598 1599
1532 1535 1538 1541 1544 1546 1548 1551 1554 1556 1558 1560 1562 1564 1566 1568 1570 1572 1574 1575 1577 1578 1580 1581 1582 1584 1585 1586 1587 1588 1589 1590 1590 1591 1592 1593 1594 1594 1595 1596 1596 1597
1528 1531 1534 1537 1540 1543 1545 1548 1551 1553 1555 1557 1559 1561 1563 1565 1567 1569 1570 1572 1573 1575 1577 1578 1579 1581 1582 1583 1584 1585 1586 1587 1588 1589 1590 1591 1591 1592 1593 1593 1594 1595
1523 1527 1530 1533 1536 1539 1542 1545 1548 1550 1552 1553 1556 1558 1560 1561 1563 1565 1567 1568 1570 1572 1574 1575 1577 1578 1579 1581 1582 1583 1584 1585 1586 1587 1587 1588 1589 1590 1590 1591 1591 1592
1519 1522 1526 1529 1533 1536 1539 1542 1545 1547 1549 1551 1552 1555 1557 1559 1560 1562 1564 1565 1567 1569 1571 1572 1573 1575 1576 1578 1579 1580 1581 1582 1584 1584 1585 1586 1586 1587 1588 1589 1589 1589
1514 1518 1522 1526 1529 1532 1536 1539 1542 1544 1546 1548 1549 1551 1554 1556 1557 1559 1560 1562 1564 1566 1567 1569 1570 1572 1573 1575 1576 1578 1579 1580 1581 1582 1583 1583 1584 1585 1585 1586 1587 1587
1511 1515 1518 1522 1525 1528 1532 1535 1538 1540 1543 1544 1546 1548 1551 1553 1554 1556 1557 1559 1561 1562 1564 1566 1567 1568 1569 1571 1573 1575 1576 1577 1578 1579 1580 1581 1581 1582 1583 1583 1584 1585
1507 1511 1514 1517 1521 1524 1527 1531 1534 1537 1539 1541 1543 1545 1547 1549 1551 1553 1554 1555 1557 1559 1561 1562 1563 1564 1566 1568 1570 1572 1573 1575 1576 1577 1577 1578 1579 1579 1580 1581 1581 1582
1503 1507 1510 1513 1516 1520 1523 1527 1530 1533 1535 1537 1540 1542 1544 1546 1547 1549 1551 1552 1553 1555 1557 1558 1559 1561 1562 1564 1567 1569 1571 1572 1573 1574 1574 1575 1576 1576 1577 1578 1578 1579
1499 1503 1506 1509 1513 1516 1519 1523 1527 1530 1532 1534 1536 1538 1540 1542 1544 1545 1547 1549 1550 1551 1553 1554 1556 1557 1558 1561 1564 1566 1568 1569 1570 1571 1571 1571 1572 1573 1574 1575 1575 1576
1495 1499 1502 1506 1509 1512 1516 1520 1523 1525 1527 1530 1532 1534 1536 1538 1540 1542 1543 1545 1547 1548 1549 1551 1552 1553 1555 1557 1560 1562 1564 1566 1567 1567 1568 1568 1569 1570 1571 1571 1572 1573
1491 1495 1498 1502 1505 1509 1512 1516 1519 1521 1523 1526 1529 1531 1532 1534 1536 1538 1539 1541 1543 1544 1546 1547 1549 1549 1551 1554 1556 1559 1561 1562 1563 1564 1564 1565 1565 1566 1567 1568 1568 1569
1487 1491 1495 1498 1502 1505 1508 1511 1514 1517 1520 1523 1525 1527 1528 1530 1532 1534 1536 1537 1539 1541 1542 1543 1545 1546 1547 1550 1553 1555 1557 1558 1560 1560 1561 1561 1562 1562 1563 1564 1565 1566
1483 1487 1491 1494 1498 1501 1504 1507 1510 1512 1516 1518 1521 1523 1525 1526 1529 1530 1532 1534 1535 1537 1538 1539 1541 1542 1543 1546 1549 1551 1553 1554 1555 1556 1557 1557 1558 1558 1559 1560 1561 1562
1479 1483 1487 1491 1494 1497 1499 1502 1505 1508 1512 1514 1517 1519 1521 1522 1525 1527 1529 1530 1532 1533 1534 1536 1537 1538 1539 1541 1544 1547 1548 1550 1551 1552 1552 1553 1554 1555 1555 1556 1557 1558
1476 1480 1483 1487 1490 1492 1495 1498 1501 1504 1507 1510 1513 1515 1517 1519 1521 1523 1525 1526 1528 1529 1530 1532 1534 1535 1535 1537 1540 1542 1544 1546 1546 1547 1548 1549 1550 1551 1551 1552 1553 1554
1473 1476 1480 1483 1486 1489 1492 1495 1498 1501 1504 1506 1509 1511 1514 1516 1518 1519 1521 1522 1524 1525 1526 1528 1530 1531 1532 1533 1535 1538 1540 1541 1542 1542 1543 1544 1546 1547 1547 1548 1549 1550
1470 1473 1477 1480 1483 1486 1489 1492 1495 1498 1500 1503 1505 1507 1510 1512 1513 1515 1517 1518 1520 1521 1523 1524 1526 1527 1528 1529 1531 1533 1535 1537 1537 1538 1539 1540 1541 1543 1543 1544 1545 1545